Weather in Firostefani

Greece     36˚25′30″N   25˚25′46″E
temp.,
°C
wind,
m/s
gust,
m/s
humid.,
%
clouds,
%
prec.,
mm/h
press.,
hPa
HPBL,
m
15 january, fri
fri1523:00+15˚wsw810640 0.0 10121160
02:00+15˚wsw1215660 0.0 10091424
05:00+16˚wsw14166858 0.3 10091802
08:00+16˚w9107559 2.9 10101118
11:00+13˚nne121280100 7.6 1012929
14:00+12˚nne101175100 7.9 1010947
17:00+13˚nne986989 0.0 10121077
20:00+12˚nne777192 0.0 1012921
16 january, sat
sat1623:00+12˚nne5564100 0.0 1013845
02:00+12˚ne336263 0.0 1011915
05:00+12˚ene666699 0.0 1009668
08:00+13˚ese666699 0.0 1007811
11:00+14˚se10117484 0.0 1006837
14:00+16˚wsw15177070 1.8 10031712
17:00+12˚nnw11118440 0.4 1005834
20:00+11˚nnw897557 0.5 10071058
17 january, sun
sun1723:00+11˚nnw9970100 0.2 10091197
02:00+11˚nnw886497 0.3 10091389
05:00+11˚nnw9106792 0.3 10101357
08:00+9˚nnw12127978 0.8 10121081
11:00+9˚nnw11117648 0.4 10141230
14:00+10˚nnw11117025 0.4 10141388
17:00+10˚nnw99666 0.1 10151502
20:00+9˚nnw785853 0.2 10171550
18 january, mon
mon1823:00+9˚nnw555995 0.0 10171386
02:00+9˚nw345597 0.0 10171329
05:00+9˚ne226296 0.1 1017876
08:00+10˚e666789 0.1 1016812
11:00+8˚ese8888100 6.0 1015852
14:00+9˚ene8987100 11.4 1014869
17:00+9˚ne121382100 2.5 10151153
20:00+10˚nne11116597 2.6 10181488
19 january, tue
tue1923:00+10˚nne11116163 0.0 10201582
02:00+9˚n11126754 0.0 10211563
05:00+9˚n11116299 0.0 10211727
08:00+8˚n12126679 0.1 10221584
11:00+9˚n11126930 0.1 10231654
14:00+9˚n12126864 0.2 10221674
17:00+9˚n121267100 0.1 10231680
20:00+9˚n12136892 0.3 10241733